[[{"header":{"parameterUnit":"m.s-1","parameterCategory":1,"la1":30.2991,"la2":30.254,"lo1":-89.0895,"lo2":-89.0444,"dy":0.0017,"dx":0.0017,"nx":28,"ny":28,"refTime":"2025-09-18T21:00:00:Z","depth":0,"parameterNumber":2,"parameterNumberName":"U-component_of_WINDS"},"data":[0,0,0,0,0,0,0,0,0,0,0,0,0,0,0,0,0,0,0,0,0,0,0,0,0,0,0,0,0,0,0,0,0,0,0,0,0,0,0,0,0,0,0,0,0,0,0,0,0,0,0,0,0,0,0,0,0,0,-0.1728,-0.1727,0,-0.1657,-0.1656,-0.1655,-0.168,-0.1681,-0.1683,-0.1685,-0.1607,-0.1604,-0.16,0,0,0,0,0,0,0,0,0,0,0,0,0,-0.1884,-0.1881,-0.1728,-0.1727,-0.1727,-0.1657,-0.1656,-0.1655,-0.168,-0.1682,-0.1683,-0.1685,-0.1608,-0.1604,-0.16,0,0,0,0,0,0,0,0,0,0,0,0,0,-0.1815,-0.188,-0.1728,-0.1731,-0.173,-0.1657,-0.1656,-0.1654,-0.1679,-0.1682,-0.1684,-0.1686,-0.161,-0.1605,-0.1599,-0.1519,0,0,-0.1583,-0.1581,0,0,0,0,0,0,0,0,-0.1819,-0.1809,-0.1731,-0.173,-0.173,-0.168,-0.1682,-0.1609,-0.1679,-0.1698,-0.1685,-0.1687,-0.1629,-0.1622,-0.1604,-0.1515,-0.1512,-0.1583,-0.1579,-0.1577,-0.1576,0,0,0,0,0,0,0,-0.1823,-0.1812,-0.17,-0.173,-0.1729,-0.1734,-0.1727,-0.1669,-0.1651,-0.1697,-0.1698,-0.169,-0.1629,-0.1609,-0.1602,-0.151,-0.1583,-0.1578,-0.1575,-0.1573,-0.1353,-0.1351,0,0,0,0,0,0,-0.1829,-0.1816,-0.1702,-0.1698,-0.1781,-0.173,-0.1722,-0.1693,-0.1652,-0.1648,-0.1688,-0.1691,-0.1617,-0.1608,-0.1599,-0.1502,-0.1577,-0.1572,-0.1569,-0.1356,-0.1352,-0.135,0,0,0,0,0,0,-0.1832,-0.1819,-0.1705,-0.1757,-0.1743,-0.1724,-0.1692,-0.1691,-0.167,-0.1645,-0.1642,-0.167,-0.1618,-0.1607,-0.1539,-0.15,-0.157,-0.1565,-0.1359,-0.1355,-0.1351,-0.1307,0,0,0,0,0,0,-0.1837,-0.182,-0.1789,-0.1757,-0.174,-0.1646,-0.169,-0.1687,-0.1661,-0.1665,-0.1628,-0.1624,-0.1619,-0.1547,-0.1534,-0.1494,-0.1561,-0.1362,-0.1357,-0.1352,-0.1312,-0.1302,-0.1294,0,0,0,0,0,-0.1842,-0.1778,-0.1787,-0.1774,-0.1702,-0.1644,-0.1635,-0.1632,-0.1658,-0.1627,-0.1611,-0.1625,-0.1507,-0.154,-0.1525,-0.1483,-0.1365,-0.1358,-0.1353,-0.1316,-0.1304,-0.1294,0,0,0,0,0,0,-0.1805,-0.1774,-0.1784,-0.1708,-0.1679,-0.1648,-0.1609,-0.1619,-0.158,-0.1585,-0.1583,-0.1574,-0.1504,-0.1487,-0.1524,-0.1403,-0.1439,-0.143,-0.1416,-0.1405,-0.1396,-0.1401,-0.1556,0,0,0,0,0,-0.1788,-0.1745,-0.172,-0.1655,-0.164,-0.1627,-0.1602,-0.1602,-0.1571,-0.1559,-0.1538,-0.1506,-0.1462,-0.1433,-0.1391,-0.131,-0.1302,-0.1274,-0.1265,-0.1258,-0.1249,-0.1206,-0.1193,-0.133,-0.133,-0.133,0,0,-0.1752,-0.173,-0.1703,-0.1647,-0.1625,-0.1579,-0.1616,-0.1566,-0.1532,-0.155,-0.1485,-0.1469,-0.1434,-0.136,-0.1326,-0.1343,-0.121,-0.125,-0.1245,-0.124,-0.1199,-0.1186,-0.1174,-0.1326,-0.1327,-0.1327,0,0,-0.1664,-0.1643,-0.1587,-0.1565,-0.1531,-0.1523,-0.151,-0.1478,-0.1469,-0.1404,-0.1417,-0.1377,-0.13,-0.1275,-0.1252,-0.1157,-0.1168,-0.1143,-0.1095,-0.1052,-0.1042,-0.1032,-0.0997,-0.0985,-0.1135,-0.1135,-0.1135,0,-0.1623,-0.1556,-0.1557,-0.1506,-0.1481,-0.1499,-0.1441,-0.1419,-0.1372,-0.1355,-0.1376,-0.1282,-0.1259,-0.1179,-0.1156,-0.1137,-0.1121,-0.1146,-0.1043,-0.1034,-0.1025,-0.0992,-0.0979,-0.1132,-0.1133,-0.1133,-0.1133,0,-0.1507,-0.146,-0.1419,-0.1376,-0.1347,-0.1293,-0.1285,-0.1255,-0.126,-0.1249,-0.1183,-0.1158,-0.1111,-0.1093,-0.1095,-0.1013,-0.1025,-0.1045,-0.1081,-0.1009,-0.0978,-0.0965,-0.1128,-0.1129,-0.113,-0.1131,0,0,-0.139,-0.135,-0.1335,-0.1316,-0.1281,-0.1244,-0.1192,-0.1148,-0.1122,-0.109,-0.1046,-0.0983,-0.1001,-0.0975,-0.0975,-0.0938,-0.0864,-0.0963,-0.0962,-0.0944,-0.0772,-0.0757,-0.0742,-0.0873,-0.087,-0.0868,-0.0775,0,-0.1298,-0.1206,-0.1207,-0.1122,-0.1079,-0.1096,-0.105,-0.1024,-0.1014,-0.0975,-0.0963,-0.0918,-0.0946,-0.0931,-0.0896,-0.0881,-0.083,-0.0888,-0.083,-0.0828,-0.0837,-0.0726,-0.0709,-0.0622,-0.0763,-0.0761,-0.076,0,-0.1177,-0.1143,-0.1054,-0.1027,-0.1009,-0.0968,-0.0929,-0.0892,-0.0862,-0.0858,-0.083,-0.0837,-0.0783,-0.0823,-0.0748,-0.0788,-0.0765,-0.0754,-0.0751,-0.0744,-0.0788,-0.0715,-0.0594,-0.0581,-0.074,-0.0742,-0.0743,0,-0.1099,-0.1032,-0.097,-0.0953,-0.092,-0.0891,-0.0876,-0.0849,-0.0823,-0.0789,-0.0772,-0.0731,-0.0708,-0.0677,-0.0672,-0.0702,-0.0597,-0.0637,-0.0591,-0.0591,-0.0566,-0.0568,-0.0439,-0.0554,-0.0554,-0.0554,-0.0555,0,-0.0995,-0.094,-0.0935,-0.0897,-0.0836,-0.0837,-0.0777,-0.0764,-0.074,-0.07,-0.0713,-0.0674,-0.0671,-0.0631,-0.0628,-0.0567,-0.0556,-0.055,-0.055,-0.0548,-0.0549,-0.0532,-0.0537,-0.0551,-0.0552,-0.0552,-0.0553,0,-0.0897,-0.0891,-0.0825,-0.0801,-0.0793,-0.0749,-0.0728,-0.0691,-0.0684,-0.0632,-0.062,-0.0608,-0.0562,-0.0555,-0.0501,-0.0499,-0.0425,-0.0431,-0.0435,-0.0435,-0.039,-0.0394,-0.0244,-0.0225,-0.0354,-0.0352,-0.0351,0,-0.083,-0.0788,-0.076,-0.0734,-0.0718,-0.0676,-0.0651,-0.0652,-0.0624,-0.0589,-0.0557,-0.0513,-0.0477,-0.0403,-0.0389,-0.0348,-0.0352,-0.0303,-0.0346,-0.0346,-0.035,-0.0352,-0.0348,-0.0294,-0.0292,-0.0291,-0.029,0,-0.0711,-0.0711,-0.0674,-0.0637,-0.0606,-0.0576,-0.0548,-0.0527,-0.0524,-0.0492,-0.0447,-0.042,-0.0366,-0.0322,-0.0282,-0.0265,-0.0277,-0.0278,-0.0265,-0.0262,-0.0265,-0.0262,-0.0411,-0.028,-0.0281,-0.0282,-0.0282,-0.0283,-0.0625,-0.0589,-0.0564,-0.0523,-0.0503,-0.0477,-0.0442,-0.0431,-0.0393,-0.035,-0.0353,-0.0303,-0.0276,-0.0224,-0.0205,-0.0165,-0.0181,-0.0163,-0.0158,-0.0153,-0.0148,-0.0274,-0.0158,-0.0158,-0.0159,-0.0159,-0.0159,0,-0.0506,-0.0492,-0.0454,-0.0416,-0.0384,-0.04,-0.037,-0.0342,-0.0298,-0.0273,-0.0239,-0.0186,-0.0145,-0.0128,-0.0087,-0.0058,-0.0063,-0.0047,-0.0049,-0.0045,-0.0136,-0.0151,-0.0045,-0.0045,-0.0045,-0.0045,-0.0045,-0.0045,-0.044,-0.0381,-0.0378,-0.0309,-0.0295,-0.0246,-0.0228,-0.0204,-0.0184,-0.0126,-0.0092,-0.0082,-0.0061,-0.0019,0.0019,0.0023,0.0039,0.0057,0.0059,-0.0027,-0.0038,-0.0049,-0.0063,0.006,0.0061,0.0147,0.0148,0.0149]},{"header":{"parameterUnit":"m.s-1","parameterCategory":1,"la1":30.2991,"la2":30.254,"lo1":-89.0895,"lo2":-89.0444,"dy":0.0017,"dx":0.0017,"nx":28,"ny":28,"refTime":"2025-09-18T21:00:00:Z","depth":0,"parameterNumber":3,"parameterNumberName":"V-component_of_WINDS"},"data":[0,0,0,0,0,0,0,0,0,0,0,0,0,0,0,0,0,0,0,0,0,0,0,0,0,0,0,0,0,0,0,0,0,0,0,0,0,0,0,0,0,0,0,0,0,0,0,0,0,0,0,0,0,0,0,0,0,0,1.121,1.121,0,1.1239,1.1239,1.124,1.1272,1.1272,1.1273,1.1273,1.13,1.13,1.13,0,0,0,0,0,0,0,0,0,0,0,0,0,1.1177,1.1177,1.121,1.121,1.1211,1.1239,1.1239,1.124,1.1272,1.1272,1.1273,1.1273,1.1299,1.13,1.13,0,0,0,0,0,0,0,0,0,0,0,0,0,1.1197,1.1178,1.121,1.123,1.1232,1.1239,1.1239,1.124,1.1271,1.1272,1.1273,1.1274,1.1299,1.13,1.13,1.1288,0,0,1.1301,1.1302,0,0,0,0,0,0,0,0,1.1196,1.1198,1.1227,1.1229,1.1231,1.1252,1.1237,1.1256,1.1271,1.1256,1.1273,1.1274,1.1283,1.1285,1.1289,1.129,1.1291,1.1301,1.1302,1.1302,1.1302,0,0,0,0,0,0,0,1.1194,1.1197,1.1221,1.1227,1.123,1.1236,1.124,1.1241,1.1265,1.1258,1.126,1.1263,1.1284,1.1288,1.129,1.1291,1.1301,1.1302,1.1302,1.1302,1.128,1.1279,0,0,0,0,0,0,1.1191,1.1196,1.122,1.1222,1.1215,1.1236,1.124,1.1245,1.1265,1.1269,1.1263,1.1265,1.1287,1.1289,1.1291,1.1276,1.1302,1.1302,1.1302,1.1281,1.128,1.1279,0,0,0,0,0,0,1.119,1.1192,1.1219,1.121,1.1213,1.1236,1.1241,1.1245,1.1249,1.1269,1.1273,1.1262,1.1288,1.129,1.1288,1.1277,1.1302,1.1303,1.1282,1.128,1.1279,1.1247,0,0,0,0,0,0,1.1189,1.1192,1.1189,1.1209,1.1214,1.1218,1.124,1.1245,1.125,1.1253,1.127,1.1273,1.1289,1.1287,1.1288,1.1278,1.1303,1.1283,1.1281,1.128,1.1249,1.1245,1.1241,0,0,0,0,0,1.1187,1.1179,1.1189,1.1192,1.1211,1.1217,1.1219,1.1238,1.1249,1.1245,1.1257,1.1273,1.1278,1.1287,1.1288,1.1278,1.1283,1.1282,1.128,1.1251,1.1245,1.1241,0,0,0,0,0,0,1.1156,1.1182,1.1193,1.1192,1.1202,1.1222,1.1218,1.1232,1.1239,1.1241,1.1263,1.1266,1.1261,1.127,1.1279,1.1266,1.1283,1.1281,1.126,1.1255,1.1251,1.1249,1.1303,0,0,0,0,0,1.1149,1.1154,1.1175,1.1171,1.1176,1.1196,1.12,1.1213,1.1224,1.1228,1.1241,1.125,1.1253,1.1255,1.126,1.1251,1.1253,1.1244,1.124,1.1236,1.1234,1.1227,1.1222,1.1273,1.1273,1.1273,0,0,1.1135,1.1149,1.1151,1.1165,1.1175,1.1177,1.12,1.1201,1.1202,1.1228,1.1227,1.1236,1.1247,1.1241,1.1239,1.1248,1.1221,1.1234,1.1231,1.1231,1.1224,1.1219,1.1215,1.1271,1.1272,1.1272,0,0,1.1109,1.1122,1.1118,1.1127,1.1141,1.1154,1.1153,1.1171,1.1179,1.1178,1.1196,1.1197,1.1203,1.1209,1.1213,1.1187,1.12,1.1188,1.1166,1.1159,1.1155,1.1151,1.1139,1.1134,1.1186,1.1186,1.1186,0,1.1089,1.1094,1.1115,1.1115,1.1119,1.1143,1.1138,1.1145,1.116,1.1161,1.1172,1.1178,1.1188,1.1181,1.1175,1.1178,1.1176,1.1185,1.1154,1.115,1.1147,1.1136,1.1131,1.1184,1.1184,1.1184,1.1185,0,1.1067,1.107,1.1065,1.1078,1.1083,1.108,1.1098,1.11,1.1112,1.1123,1.112,1.1132,1.1138,1.1137,1.115,1.1132,1.1137,1.115,1.1167,1.114,1.113,1.1126,1.1181,1.1182,1.1183,1.1183,0,0,1.1024,1.1047,1.1045,1.1049,1.1066,1.1067,1.1064,1.1071,1.107,1.1078,1.1075,1.1078,1.109,1.1094,1.1107,1.1101,1.1075,1.1115,1.1115,1.1104,1.1052,1.1041,1.1035,1.1084,1.1084,1.1083,1.1051,0,1.0999,1.0997,1.1014,1.1006,1.1007,1.1028,1.1025,1.1033,1.1043,1.1044,1.1054,1.1055,1.1072,1.1074,1.1069,1.1079,1.1064,1.1082,1.1078,1.1078,1.1073,1.103,1.1019,1.0987,1.1047,1.1046,1.1046,0,1.0971,1.0977,1.0969,1.0982,1.0983,1.0981,1.0986,1.0987,1.0996,1.1003,1.1007,1.1021,1.1017,1.1034,1.1027,1.1038,1.1038,1.1042,1.1041,1.104,1.1059,1.1025,1.0978,1.0972,1.104,1.104,1.1041,0,1.0936,1.0943,1.0938,1.0942,1.0959,1.0955,1.0962,1.0971,1.0973,1.0977,1.0978,1.0981,1.0982,1.0984,1.0997,1.101,1.0987,1.1007,1.0991,1.099,1.0984,1.0984,1.0933,1.0987,1.0987,1.0987,1.0987,0,1.0906,1.09,1.0923,1.092,1.0912,1.0931,1.0922,1.0931,1.0938,1.0935,1.0954,1.095,1.097,1.0968,1.0979,1.0969,1.097,1.0974,1.0976,1.0971,1.097,1.0969,1.0971,1.0986,1.0986,1.0987,1.0987,0,1.0867,1.0882,1.0878,1.0893,1.0896,1.089,1.0902,1.0898,1.0908,1.0904,1.0904,1.092,1.0918,1.0932,1.0933,1.094,1.0924,1.0932,1.0921,1.0922,1.0904,1.0905,1.085,1.0842,1.0904,1.0903,1.0903,0,1.0846,1.0841,1.0855,1.0854,1.086,1.0859,1.086,1.0878,1.0878,1.0885,1.088,1.088,1.088,1.0876,1.0886,1.0886,1.0892,1.0873,1.0892,1.0885,1.0888,1.0887,1.0885,1.0868,1.0867,1.0867,1.0866,0,1.0805,1.0812,1.0814,1.0817,1.0818,1.0821,1.0826,1.0824,1.0842,1.0841,1.0839,1.084,1.084,1.0838,1.0839,1.0844,1.0857,1.086,1.0856,1.0849,1.0842,1.0843,1.0907,1.0861,1.0862,1.0862,1.0862,1.0863,1.0773,1.0768,1.0777,1.0777,1.0781,1.0784,1.0781,1.079,1.0789,1.079,1.08,1.0796,1.0801,1.0804,1.0807,1.0803,1.0812,1.0806,1.0804,1.0802,1.0797,1.0845,1.0803,1.0804,1.0804,1.0804,1.0804,0,1.0731,1.0737,1.0737,1.0742,1.0741,1.0754,1.0759,1.0756,1.0752,1.0757,1.0756,1.0752,1.075,1.0759,1.0757,1.0751,1.0757,1.075,1.075,1.075,1.0791,1.0794,1.0745,1.0745,1.0745,1.0745,1.0745,1.0745,1.071,1.0702,1.0709,1.0702,1.0708,1.0704,1.0705,1.0706,1.0709,1.0704,1.0702,1.0708,1.0713,1.0712,1.0709,1.0712,1.0709,1.0699,1.0703,1.0742,1.0747,1.0753,1.0755,1.0699,1.0699,1.0662,1.0661,1.0661]}]]